Time,TemperatureF,DewpointF,PressureIn,WindDirection,WindDirectionDegrees,WindSpeedMPH,WindSpeedGustMPH,Humidity,HourlyPrecipIn,Conditions,Clouds,dailyrainin,SoftwareType,DateUTC
2013-03-21 00:08:00,45.3,25.8,29.62,East,90,0.0,-999.0,46,-99.99,,,0.00,Acu-Link.com,2013-03-21 04:08:00,
2013-03-21 00:23:00,45.7,25.1,29.62,NW,315,0.0,-999.0,44,-99.99,,,0.00,Acu-Link.com,2013-03-21 04:23:00,
2013-03-21 00:38:00,45.7,25.1,29.62,North,0,0.0,-999.0,44,-99.99,,,0.00,Acu-Link.com,2013-03-21 04:38:00,
2013-03-21 00:53:00,45.9,24.7,29.61,SSW,202,0.0,-999.0,43,-99.99,,,0.00,Acu-Link.com,2013-03-21 04:53:00,
2013-03-21 01:08:00,45.7,24.5,29.61,West,270,1.1,-999.0,43,-99.99,,,0.00,Acu-Link.com,2013-03-21 05:08:00,
2013-03-21 01:23:00,45.9,24.7,29.61,SW,225,2.7,-999.0,43,-99.99,,,0.00,Acu-Link.com,2013-03-21 05:23:00,
2013-03-21 01:38:00,46.2,25.5,29.61,WSW,247,1.7,-999.0,44,-99.99,,,0.00,Acu-Link.com,2013-03-21 05:38:00,
2013-03-21 01:53:00,45.9,25.8,29.61,West,270,2.7,-999.0,45,-99.99,,,0.00,Acu-Link.com,2013-03-21 05:53:00,
2013-03-21 02:08:00,45.9,25.8,29.61,NNW,337,1.7,-999.0,45,-99.99,,,0.00,Acu-Link.com,2013-03-21 06:08:00,
2013-03-21 02:24:00,45.7,25.6,29.60,SW,225,2.2,-999.0,45,-99.99,,,0.00,Acu-Link.com,2013-03-21 06:24:00,
2013-03-21 02:39:00,45.5,26.5,29.61,NE,45,2.2,-999.0,47,-99.99,,,0.00,Acu-Link.com,2013-03-21 06:39:00,
2013-03-21 02:54:00,45.1,26.6,29.62,SSW,202,2.2,-999.0,48,-99.99,,,0.00,Acu-Link.com,2013-03-21 06:54:00,
2013-03-21 03:09:00,45.0,27.5,29.62,SSW,202,1.7,-999.0,50,-99.99,,,0.00,Acu-Link.com,2013-03-21 07:09:00,
2013-03-21 03:24:00,44.4,27.9,29.62,SSW,202,1.7,-999.0,52,-99.99,,,0.00,Acu-Link.com,2013-03-21 07:24:00,
2013-03-21 03:39:00,43.9,27.9,29.63,ENE,67,2.7,-999.0,53,-99.99,,,0.00,Acu-Link.com,2013-03-21 07:39:00,
2013-03-21 03:54:00,43.5,28.0,29.63,SW,225,4.7,-999.0,54,-99.99,,,0.00,Acu-Link.com,2013-03-21 07:54:00,
2013-03-21 04:09:00,43.3,27.8,29.63,ESE,112,1.1,-999.0,54,-99.99,,,0.00,Acu-Link.com,2013-03-21 08:09:00,
2013-03-21 04:24:00,42.8,26.9,29.63,SW,225,1.1,-999.0,53,-99.99,,,0.00,Acu-Link.com,2013-03-21 08:24:00,
2013-03-21 04:39:00,42.3,25.9,29.63,NE,45,0.0,-999.0,52,-99.99,,,0.00,Acu-Link.com,2013-03-21 08:39:00,
2013-03-21 04:55:00,41.9,25.1,29.63,SE,135,1.7,-999.0,51,-99.99,,,0.00,Acu-Link.com,2013-03-21 08:55:00,
2013-03-21 05:10:00,41.4,25.1,29.62,West,270,1.1,-999.0,52,-99.99,,,0.00,Acu-Link.com,2013-03-21 09:10:00,
2013-03-21 05:25:00,40.8,25.0,29.63,NW,315,1.7,-999.0,53,-99.99,,,0.00,Acu-Link.com,2013-03-21 09:25:00,
2013-03-21 05:40:00,40.3,24.5,29.63,West,270,2.7,-999.0,53,-99.99,,,0.00,Acu-Link.com,2013-03-21 09:40:00,
2013-03-21 05:55:00,40.1,24.8,29.63,West,270,2.7,-999.0,54,-99.99,,,0.00,Acu-Link.com,2013-03-21 09:55:00,
2013-03-21 06:10:00,39.7,23.5,29.65,SW,225,2.7,-999.0,52,-99.99,,,0.00,Acu-Link.com,2013-03-21 10:10:00,
2013-03-21 06:25:00,39.7,23.1,29.64,WSW,247,2.2,-999.0,51,-99.99,,,0.00,Acu-Link.com,2013-03-21 10:25:00,
2013-03-21 06:40:00,39.4,23.7,29.65,West,270,2.7,-999.0,53,-99.99,,,0.00,Acu-Link.com,2013-03-21 10:40:00,
2013-03-21 06:55:00,38.8,25.3,29.65,West,270,2.2,-999.0,58,-99.99,,,0.00,Acu-Link.com,2013-03-21 10:55:00,
2013-03-21 07:11:00,38.5,26.2,29.65,South,180,2.2,-999.0,61,-99.99,,,0.00,Acu-Link.com,2013-03-21 11:11:00,
2013-03-21 08:11:00,37.8,24.4,29.65,WSW,247,3.2,-999.0,58,-99.99,,,0.00,Acu-Link.com,2013-03-21 12:11:00,
2013-03-21 09:11:00,40.5,20.3,29.65,SE,135,3.2,-999.0,44,-99.99,,,0.00,Acu-Link.com,2013-03-21 13:11:00,
2013-03-21 09:27:00,41.2,20.4,29.66,West,270,2.2,-999.0,43,-99.99,,,0.00,Acu-Link.com,2013-03-21 13:27:00,
2013-03-21 09:42:00,41.9,21.6,29.66,SW,225,2.7,-999.0,44,-99.99,,,0.00,Acu-Link.com,2013-03-21 13:42:00,
2013-03-21 09:57:00,42.6,21.1,29.67,SSW,202,2.2,-999.0,42,-99.99,,,0.00,Acu-Link.com,2013-03-21 13:57:00,
2013-03-21 10:12:00,43.0,18.5,29.66,West,270,1.7,-999.0,37,-99.99,,,0.00,Acu-Link.com,2013-03-21 14:12:00,
2013-03-21 10:42:00,44.1,18.9,29.66,SW,225,2.7,-999.0,36,-99.99,,,0.00,Acu-Link.com,2013-03-21 14:42:00,
2013-03-21 10:57:00,45.0,19.0,29.67,ENE,67,2.2,-999.0,35,-99.99,,,0.00,Acu-Link.com,2013-03-21 14:57:00,
2013-03-21 11:12:00,45.0,17.6,29.68,WSW,247,3.2,-999.0,33,-99.99,,,0.00,Acu-Link.com,2013-03-21 15:12:00,
2013-03-21 11:27:00,45.9,19.1,29.67,NW,315,2.7,-999.0,34,-99.99,,,0.00,Acu-Link.com,2013-03-21 15:27:00,
2013-03-21 11:43:00,46.6,19.1,29.67,NE,45,4.2,-999.0,33,-99.99,,,0.00,Acu-Link.com,2013-03-21 15:43:00,
2013-03-21 11:58:00,48.0,18.1,29.67,WSW,247,4.7,-999.0,30,-99.99,,,0.00,Acu-Link.com,2013-03-21 15:58:00,
2013-03-21 12:13:00,46.9,12.9,29.66,ENE,67,4.2,-999.0,25,-99.99,,,0.00,Acu-Link.com,2013-03-21 16:13:00,
2013-03-21 12:28:00,48.7,12.6,29.66,WSW,247,2.7,-999.0,23,-99.99,,,0.00,Acu-Link.com,2013-03-21 16:28:00,
2013-03-21 12:43:00,49.8,11.5,29.66,West,270,3.7,-999.0,21,-99.99,,,0.00,Acu-Link.com,2013-03-21 16:43:00,
2013-03-21 12:58:00,49.8,11.5,29.66,SW,225,2.7,-999.0,21,-99.99,,,0.00,Acu-Link.com,2013-03-21 16:58:00,
2013-03-21 13:13:00,50.5,13.1,29.66,WSW,247,4.2,-999.0,22,-99.99,,,0.00,Acu-Link.com,2013-03-21 17:13:00,
2013-03-21 13:28:00,50.5,12.0,29.65,West,270,2.7,-999.0,21,-99.99,,,0.00,Acu-Link.com,2013-03-21 17:28:00,
2013-03-21 13:43:00,52.2,12.4,29.66,West,270,5.3,-999.0,20,-99.99,,,0.00,Acu-Link.com,2013-03-21 17:43:00,
2013-03-21 13:59:00,52.9,12.9,29.65,WSW,247,6.3,-999.0,20,-99.99,,,0.00,Acu-Link.com,2013-03-21 17:59:00,
2013-03-21 14:14:00,52.9,12.9,29.65,WSW,247,3.7,-999.0,20,-99.99,,,0.00,Acu-Link.com,2013-03-21 18:14:00,
2013-03-21 14:29:00,52.3,11.3,29.63,West,270,5.3,-999.0,19,-99.99,,,0.00,Acu-Link.com,2013-03-21 18:29:00,
2013-03-21 14:44:00,53.1,13.1,29.63,SSW,202,2.2,-999.0,20,-99.99,,,0.00,Acu-Link.com,2013-03-21 18:44:00,
2013-03-21 14:59:00,54.1,13.9,29.63,South,180,5.8,-999.0,20,-99.99,,,0.00,Acu-Link.com,2013-03-21 18:59:00,
2013-03-21 15:14:00,53.4,14.5,29.63,WSW,247,2.2,-999.0,21,-99.99,,,0.00,Acu-Link.com,2013-03-21 19:14:00,
2013-03-21 15:29:00,53.8,14.8,29.63,WSW,247,4.7,-999.0,21,-99.99,,,0.00,Acu-Link.com,2013-03-21 19:29:00,
2013-03-21 15:44:00,54.7,14.4,29.62,WSW,247,3.7,-999.0,20,-99.99,,,0.00,Acu-Link.com,2013-03-21 19:44:00,
2013-03-21 15:59:00,54.7,14.4,29.62,WSW,247,5.3,-999.0,20,-99.99,,,0.00,Acu-Link.com,2013-03-21 19:59:00,
2013-03-21 16:15:00,55.6,17.4,29.62,SSW,202,5.8,-999.0,22,-99.99,,,0.00,Acu-Link.com,2013-03-21 20:15:00,
2013-03-21 16:30:00,54.9,14.6,29.62,SW,225,4.2,-999.0,20,-99.99,,,0.00,Acu-Link.com,2013-03-21 20:30:00,
2013-03-21 16:45:00,57.6,18.0,29.62,WNW,292,2.7,-999.0,21,-99.99,,,0.00,Acu-Link.com,2013-03-21 20:45:00,
2013-03-21 17:00:00,56.8,15.0,29.61,WSW,247,2.2,-999.0,19,-99.99,,,0.00,Acu-Link.com,2013-03-21 21:00:00,
2013-03-21 17:15:00,55.0,14.7,29.62,West,270,3.2,-999.0,20,-99.99,,,0.00,Acu-Link.com,2013-03-21 21:15:00,
2013-03-21 17:30:00,57.4,17.8,29.63,SE,135,1.7,-999.0,21,-99.99,,,0.00,Acu-Link.com,2013-03-21 21:30:00,
2013-03-21 17:45:00,56.5,14.8,29.62,NW,315,2.2,-999.0,19,-99.99,,,0.00,Acu-Link.com,2013-03-21 21:45:00,
2013-03-21 18:00:00,56.7,16.1,29.63,SSE,157,3.7,-999.0,20,-99.99,,,0.00,Acu-Link.com,2013-03-21 22:00:00,
2013-03-21 18:15:00,56.1,15.6,29.63,WSW,247,2.7,-999.0,20,-99.99,,,0.00,Acu-Link.com,2013-03-21 22:15:00,
2013-03-21 18:31:00,53.2,13.2,29.63,ENE,67,3.2,-999.0,20,-99.99,,,0.00,Acu-Link.com,2013-03-21 22:31:00,
2013-03-21 18:46:00,52.2,14.5,29.64,WSW,247,2.2,-999.0,22,-99.99,,,0.00,Acu-Link.com,2013-03-21 22:46:00,
2013-03-21 19:46:00,48.6,17.0,29.66,WSW,247,1.7,-999.0,28,-99.99,,,0.00,Acu-Link.com,2013-03-21 23:46:00,
2013-03-21 20:01:00,47.1,17.3,29.65,NNE,22,1.7,-999.0,30,-99.99,,,0.00,Acu-Link.com,2013-03-22 00:01:00,
2013-03-21 20:16:00,46.6,17.6,29.66,West,270,1.7,-999.0,31,-99.99,,,0.00,Acu-Link.com,2013-03-22 00:16:00,
2013-03-21 20:31:00,45.5,17.4,29.66,SSW,202,0.0,-999.0,32,-99.99,,,0.00,Acu-Link.com,2013-03-22 00:31:00,
2013-03-21 20:47:00,44.6,19.3,29.68,WSW,247,0.0,-999.0,36,-99.99,,,0.00,Acu-Link.com,2013-03-22 00:47:00,
2013-03-21 21:02:00,43.9,17.4,29.68,ESE,112,0.0,-999.0,34,-99.99,,,0.00,Acu-Link.com,2013-03-22 01:02:00,
2013-03-21 21:17:00,43.0,19.2,29.67,ESE,112,0.0,-999.0,38,-99.99,,,0.00,Acu-Link.com,2013-03-22 01:17:00,
2013-03-21 21:32:00,41.9,19.9,29.68,SE,135,0.0,-999.0,41,-99.99,,,0.00,Acu-Link.com,2013-03-22 01:32:00,
2013-03-21 21:47:00,41.2,19.9,29.69,East,90,0.0,-999.0,42,-99.99,,,0.00,Acu-Link.com,2013-03-22 01:47:00,
2013-03-21 22:02:00,40.6,20.4,29.70,SE,135,0.0,-999.0,44,-99.99,,,0.00,Acu-Link.com,2013-03-22 02:02:00,
2013-03-21 22:17:00,39.9,22.3,29.70,East,90,1.1,-999.0,49,-99.99,,,0.00,Acu-Link.com,2013-03-22 02:17:00,
2013-03-21 22:32:00,39.7,22.1,29.70,SW,225,0.0,-999.0,49,-99.99,,,0.00,Acu-Link.com,2013-03-22 02:32:00,
2013-03-21 22:47:00,39.4,25.5,29.72,WSW,247,0.0,-999.0,57,-99.99,,,0.00,Acu-Link.com,2013-03-22 02:47:00,
2013-03-21 23:03:00,38.7,26.0,29.72,East,90,0.0,-999.0,60,-99.99,,,0.00,Acu-Link.com,2013-03-22 03:03:00,
2013-03-21 23:18:00,38.1,25.9,29.73,SW,225,0.0,-999.0,61,-99.99,,,0.00,Acu-Link.com,2013-03-22 03:18:00,
2013-03-21 23:33:00,37.4,24.4,29.73,SW,225,0.0,-999.0,59,-99.99,,,0.00,Acu-Link.com,2013-03-22 03:33:00,
2013-03-21 23:48:00,36.9,24.7,29.73,SW,225,0.0,-999.0,61,-99.99,,,0.00,Acu-Link.com,2013-03-22 03:48:00,